Location: Olomouc
(49.5830°N, 17.2500°E)
Time: 19:38:51
(UTC+02:00)

ISS - Pass Details

Date: 13 May 2021
Orbit: 417 x 422 km, 51.6° (Epoch: 14 June)

Event Time Altitude Azimuth Distance (km) Brightness Sun altitude
Exits shadow 23:44:40 12° 74° (ENE) 1,384 -1.1 -20.4°
Drops below altitude 10° 23:44:59 10° 73° (ENE) 1,508 -0.9 -20.4°
Sets 23:47:05 0° 72° (ENE) 2,375 0.1 -20.5°
